Tracking 17265 objects as of 4-September-2015
HD Live streaming from Space Station

Track Soyuz TMA-18M
and Space Station

SL-12 R/B(AUX MOTOR)

Track SL-12 R/B(AUX MOTOR) now!
SL-12 R/B(AUX MOTOR) is classified as:


NORAD ID: 25053
Int'l Code: 1997-070E
Perigee: 1,108.2 km
Apogee: 33,054.9 km
Inclination: 46.3 °
Period: 595.7 minutes
Semi major axis: 23452 km
RCS: 0.8237 m2 (medium)
Launch date: November 12, 1997
Source: Commonwealth of Independent States (former USSR) (CIS)

Note: This is a ROCKET BODY
Your satellite tracking list
Your tracking list is empty





NASA's NSSDC Master Catalog

Two Line Element Set (TLE):
1 25053U 97070E   15244.07566422 -.00000080 +00000-0 +45121-2 0  9990
2 25053 046.3088 311.1115 6810913 345.7969 002.1725 02.41722689156583

Source of the keplerian elements: AFSPC

N2YO: 382